Powrót do katalogu

GB 1

AktywnyNaukaLEO
NORAD 14143·PAYLOAD·🇺🇸 United States

Wystrzelony Jun 9, 1983 z Vandenberg Space Force Base

Loading…

Następne Przeloty (najbliższe 24 godziny)

TLE

ŚwieżeSource: Space-Track

Epoka: Sep 13, 2026, 16:41 UTC

1 14143U 83056C   26256.69543258  .00002616  00000-0  35113-3 0  9999
2 14143  63.3155  10.1972 0715815 133.1296 233.1944 13.79418367358843

Śledź GB 1 w czasie rzeczywistym z AllMySat

Download on the App Store